Location: Hermaringen
(48.5952°N, 10.2585°E)
Time: 06:05:11
(UTC+00:00)

Transit 2A - Pass Details

Date: 21 February 2026
Orbit: 590 x 954 km, 66.7° (Epoch: 14 March)

Event Time Altitude Azimuth Distance (km) Brightness Sun altitude
Rises 18:22:08 0° 325° (NW) 3,607 10.0 -15.9°
Reaches altitude 10° 18:24:57 10° 333° (NNW) 2,630 9.2 -16.4°
Maximum altitude 18:30:40 39° 41° (NE) 1,306 6.9 -17.3°
Enters shadow 18:32:45 29° 83° (E) 1,525 7.0 -17.7°
